Wind_Speed
38 36 39 37 27 23 28 19 24 24 27 26 28 27 28 28 30 31 32 32 30 30 31 31 32 33 33 35 37 39 42 45 48 52 56 61 65 69 72 75 75 72 71 73
30 29 29 33 34 31 31 28 26 26 26 28 29 33 31 30 30 32 33 30 29 31 31 32 34 34 36 38 39 42 44 47 52 56 61 66 70 74 76 74 70 70 72 73
28 27 29 31 31 36 32 31 32 30 26 32 34 35 36 32 31 31 30 30 31 32 34 34 34 36 38 39 41 44 47 52 57 61 67 71 74 76 72 68 69 70 72 74
29 29 30 29 30 32 36 36 36 33 34 36 36 37 32 30 29 28 30 31 33 34 35 36 37 39 39 41 44 47 52 56 62 67 71 75 74 69 67 68 69 72 74 78
27 29 29 26 26 30 33 30 36 35 34 31 32 31 31 29 28 29 31 32 34 35 37 38 38 39 40 43 47 52 56 61 66 71 74 72 66 65 66 69 72 76 80 84
19 20 17 21 23 26 30 25 27 27 26 26 31 33 31 28 30 30 31 33 37 40 39 39 38 40 43 47 51 56 61 66 70 73 66 62 63 65 68 73 78 82 86 92
15 17 12 15 21 22 21 18 21 24 26 27 30 29 27 29 30 31 31 32 33 34 35 39 40 42 46 51 56 61 66 70 69 61 60 61 64 69 74 79 83 88 93 96
22 23 17 16 19 21 18 22 23 22 22 23 25 27 28 28 31 35 37 33 33 36 37 39 42 47 51 55 60 65 69 62 58 58 59 64 68 74 80 86 89 92 95 96
25 19 21 16 17 20 21 24 27 26 26 27 28 30 31 31 30 33 32 33 34 36 38 42 47 50 55 60 65 64 56 55 56 58 63 68 73 79 86 91 93 96 97 93
25 19 21 20 18 17 17 16 18 21 25 25 26 27 28 29 30 31 31 32 35 38 43 46 50 55 60 63 56 53 52 54 57 61 67 72 77 84 91 95 99 97 91 83
13 13 13 14 15 16 15 16 18 20 22 23 24 27 28 29 30 31 33 36 40 43 46 50 55 58 56 51 51 51 54 56 62 67 71 77 84 91 96 100 98 88 79 74
13 12 11 11 11 13 14 16 19 21 23 25 27 29 31 32 34 35 36 39 42 46 50 54 55 49 48 49 51 53 56 62 68 72 78 85 90 93 99 97 87 78 72 70
15 14 13 15 16 18 20 21 22 23 26 28 31 33 35 35 36 37 39 42 45 49 52 48 45 46 48 51 52 57 62 68 73 77 84 89 92 98 98 87 77 70 68 70
18 18 18 21 23 24 26 26 28 30 31 33 34 34 34 34 35 38 41 45 48 48 43 43 44 47 50 53 57 61 67 72 77 82 87 92 97 97 89 80 71 66 69 74
25 26 27 28 27 27 29 31 33 34 33 32 31 32 33 35 38 43 45 46 42 40 41 43 46 49 52 56 61 67 72 78 82 85 91 95 96 88 79 72 69 71 73 76
33 32 31 31 31 32 34 36 34 32 31 31 33 34 37 42 42 43 41 38 38 40 42 45 48 52 55 61 67 72 78 81 85 89 92 95 87 78 71 69 72 74 78 75
34 34 34 35 36 35 33 31 30 30 31 34 38 40 39 41 41 37 36 37 39 41 44 48 52 56 61 66 72 77 81 83 87 91 94 87 78 70 69 72 74 78 68 58
36 37 37 37 35 33 32 32 33 34 35 36 38 39 40 36 34 34 36 38 40 44 47 51 56 61 67 73 77 80 82 85 89 92 87 78 70 68 71 74 77 67 56 50
34 34 34 34 34 34 33 32 33 35 36 37 37 35 32 32 33 35 37 40 44 47 51 56 61 67 72 77 80 82 84 87 90 87 77 70 67 70 73 76 66 57 49 40
29 29 29 30 30 31 33 34 36 36 36 32 31 32 32 33 34 37 41 44 47 52 56 61 67 72 77 79 81 83 86 89 86 77 69 67 69 72 75 65 57 49 39 32
27 29 31 32 34 35 35 35 34 32 31 31 31 32 33 35 38 42 45 48 53 57 62 68 73 77 79 80 81 85 87 84 77 69 66 68 70 73 62 55 48 39 29 28
30 31 31 32 33 34 33 32 30 30 31 32 33 34 37 40 43 47 50 53 58 63 69 73 76 77 78 80 83 86 83 76 69 65 67 69 72 59 54 45 36 29 26 23
29 29 30 31 31 30 29 30 31 33 33 35 36 39 42 44 47 50 55 60 65 70 74 76 77 77 78 82 85 81 75 67 64 67 68 70 56 52 44 35 31 25 22 18
32 32 31 30 30 31 32 33 34 35 37 39 42 44 46 48 52 57 61 67 70 73 75 75 75 77 81 84 81 73 66 64 67 68 68 54 51 44 37 33 28 22 17 10
29 29 30 32 33 33 34 36 37 39 41 43 45 47 51 54 58 64 68 70 71 72 72 73 75 80 83 78 72 66 64 66 69 63 52 49 44 38 36 30 23 16 9 1
29 32 34 36 37 37 38 38 39 41 44 47 50 54 57 61 64 66 68 70 69 70 71 74 80 80 76 69 64 64 65 69 58 51 48 44 40 37 30 24 17 11 2 15
31 33 35 37 37 38 39 42 44 47 50 53 57 60 61 63 65 66 67 66 67 69 74 78 77 73 68 63 63 66 66 53 50 48 44 42 38 31 24 17 12 5 19 22
Wind_Direction
205 211 210 220 237 227 221 214 219 228 230 238 242 255 265 265 263 262 263 265 267 268 270 274 278 282 286 287 288 291 295 299 302 307 310 311 311 310 311 310 310 309 309 310
214 221 221 224 226 222 226 228 231 235 235 243 259 261 260 260 260 260 265 266 266 267 272 275 279 283 284 287 291 295 299 304 306 309 311 310 311 311 311 310 310 310 311 311
224 228 232 231 231 233 229 229 237 241 253 247 245 257 259 262 262 264 266 267 268 272 274 277 280 283 287 292 296 299 303 306 308 310 311 311 310 311 311 310 311 311 311 311
225 225 229 232 229 231 235 236 242 246 252 250 248 255 261 263 263 264 264 265 268 271 276 279 281 286 291 296 298 301 305 308 309 310 309 310 312 311 312 313 312 312 312 313
227 231 232 233 233 233 238 242 243 247 253 251 250 249 256 261 263 263 265 269 272 275 276 278 282 288 296 296 299 304 306 308 308 308 311 311 312 313 314 313 313 313 314 314
212 222 225 229 233 235 239 241 245 244 246 243 247 251 252 260 262 266 271 274 273 273 275 281 291 293 294 298 302 305 306 307 308 310 310 312 314 315 314 314 315 316 316 316
211 214 207 221 222 227 232 221 229 231 237 242 246 254 257 262 268 271 273 277 278 282 289 290 290 292 297 301 304 305 305 307 308 310 313 315 315 316 317 319 318 317 317 318
220 231 237 233 230 235 234 229 230 234 239 247 255 261 266 271 278 277 275 279 284 286 285 288 293 297 301 302 303 304 305 307 310 313 315 316 319 320 321 320 319 319 319 319
230 233 231 240 242 244 239 240 240 242 249 257 263 269 274 276 281 282 280 279 280 283 289 294 297 300 301 301 302 304 306 309 313 315 318 320 322 322 323 322 322 321 319 319
230 233 235 244 240 241 247 253 254 255 259 263 267 270 273 275 275 277 278 281 286 291 294 297 299 299 300 302 304 305 309 313 315 317 319 321 322 323 324 324 323 321 320 319
207 215 222 227 234 241 247 257 263 267 271 273 273 275 277 275 278 283 287 289 291 293 296 297 298 300 302 303 305 310 312 314 317 319 320 321 323 324 324 323 322 321 320 319
211 227 233 245 252 260 268 272 274 274 275 277 278 278 278 278 281 285 286 287 291 294 295 297 300 302 303 307 310 312 313 316 319 320 321 322 322 323 323 322 322 321 320 320
224 237 256 268 270 273 280 283 281 281 282 282 283 282 282 282 282 285 288 289 290 293 298 301 301 304 309 311 313 313 317 319 320 321 321 321 321 323 322 322 322 321 322 320
236 246 262 270 272 274 276 277 279 280 283 282 280 279 280 282 284 286 288 292 296 299 300 302 306 310 313 314 315 317 319 321 321 320 320 321 322 322 322 322 322 323 321 321
247 257 266 269 266 267 272 276 278 280 280 278 279 280 283 285 287 290 294 297 299 300 304 308 312 314 313 315 317 319 320 321 320 320 321 323 322 322 322 323 323 323 323 322
257 262 265 266 270 274 278 280 279 278 279 280 282 285 287 289 292 295 297 298 301 306 310 312 312 313 314 317 319 319 319 319 320 321 322 322 322 322 323 323 324 324 324 324
259 261 265 269 275 279 277 275 276 277 280 283 285 286 288 292 296 298 299 302 306 310 311 311 313 313 316 318 318 318 318 318 320 322 322 322 322 322 323 324 325 325 325 327
264 266 270 273 273 272 273 275 276 277 279 282 285 291 294 296 299 300 303 306 308 309 310 312 314 316 318 318 317 316 317 319 321 322 323 322 322 323 324 324 324 326 327 327
263 265 265 267 269 269 270 271 275 279 284 288 291 293 295 296 299 302 305 306 307 309 312 315 316 317 316 316 315 316 317 320 322 323 322 322 322 323 323 324 325 326 326 326
258 259 260 264 268 272 275 278 280 282 286 290 291 292 294 299 301 303 304 306 308 310 313 316 317 316 315 315 314 316 320 322 323 322 322 322 322 322 323 324 325 325 325 326
266 267 270 272 275 276 277 279 283 286 287 287 289 293 297 299 300 302 304 306 309 314 316 316 316 314 313 313 316 318 320 322 322 322 321 321 321 322 324 324 325 325 326 327
264 267 269 273 274 275 278 280 281 282 284 287 290 293 295 297 299 302 305 309 314 316 316 315 313 312 312 314 317 320 321 321 321 321 320 321 322 323 324 325 327 327 327 327
265 269 271 271 274 276 275 276 277 280 284 287 289 293 296 299 303 307 311 314 315 314 313 312 311 312 313 315 319 320 320 320 320 320 320 321 322 323 324 325 325 326 325 325
269 268 269 271 272 274 274 275 278 282 285 287 291 294 298 302 307 311 313 314 312 311 310 310 311 313 315 318 320 319 319 319 319 320 321 321 322 323 323 324 323 324 322 322
266 267 269 271 271 272 275 279 282 286 289 292 296 300 303 306 309 312 312 311 309 309 310 311 312 315 318 319 318 319 319 319 319 320 321 321 322 321 320 319 319 320 315 230
269 269 271 273 275 278 280 283 286 289 293 296 300 303 306 308 309 309 308 308 309 310 311 313 315 318 317 317 318 318 318 319 320 319 321 321 320 319 317 314 316 314 200 157
270 273 276 278 280 282 284 286 288 291 295 298 301 303 305 307 307 307 308 308 310 311 313 315 318 317 316 317 318 318 319 319 319 320 320 320 320 318 316 311 312 172 155 150
Height
5627 5635 5643 5647 5652 5658 5662 5670 5674 5679 5681 5684 5684 5687 5689 5691 5693 5693 5693 5693 5693 5692 5691 5690 5689 5688 5685 5683 5680 5677 5674 5669 5664 5658 5652 5645 5637 5629 5620 5610 5601 5591 5582 5572
5631 5636 5642 5646 5650 5655 5660 5666 5669 5674 5679 5679 5680 5681 5683 5684 5685 5686 5686 5686 5686 5685 5684 5683 5682 5680 5677 5674 5671 5668 5664 5659 5653 5647 5640 5632 5624 5614 5605 5595 5585 5576 5566 5557
5628 5632 5636 5642 5648 5651 5658 5663 5666 5670 5676 5674 5675 5675 5676 5678 5679 5680 5680 5680 5679 5678 5677 5676 5674 5671 5669 5666 5662 5658 5654 5648 5641 5634 5627 5618 5609 5599 5590 5580 5571 5561 5551 5540
5625 5630 5634 5638 5643 5647 5651 5656 5660 5665 5666 5667 5669 5669 5671 5672 5673 5673 5673 5673 5672 5671 5670 5668 5666 5663 5660 5657 5653 5648 5643 5637 5629 5621 5613 5604 5594 5583 5574 5565 5556 5545 5535 5522
5623 5627 5631 5636 5639 5642 5645 5651 5653 5657 5657 5661 5662 5664 5665 5666 5666 5666 5665 5665 5665 5664 5662 5659 5657 5654 5650 5647 5643 5638 5631 5625 5617 5609 5600 5589 5579 5570 5561 5551 5541 5530 5518 5506
5620 5624 5629 5631 5634 5637 5639 5645 5647 5650 5652 5655 5656 5657 5659 5660 5659 5659 5659 5658 5657 5655 5653 5651 5648 5645 5642 5638 5632 5626 5620 5612 5604 5595 5585 5576 5566 5557 5547 5536 5525 5513 5501 5486
5618 5622 5627 5629 5630 5632 5636 5644 5641 5644 5646 5647 5648 5650 5652 5651 5652 5652 5651 5650 5648 5647 5645 5643 5640 5636 5632 5627 5621 5614 5607 5599 5591 5581 5572 5562 5554 5543 5533 5521 5508 5495 5482 5466
5615 5619 5625 5625 5627 5631 5634 5635 5636 5638 5640 5641 5643 5644 5644 5645 5645 5644 5644 5642 5641 5639 5637 5634 5631 5627 5622 5616 5609 5602 5595 5586 5577 5568 5559 5550 5541 5529 5516 5504 5491 5475 5459 5444
5615 5619 5620 5622 5624 5626 5628 5630 5632 5633 5635 5636 5637 5637 5638 5638 5638 5637 5636 5634 5633 5631 5628 5625 5621 5616 5610 5604 5597 5590 5581 5573 5564 5555 5546 5535 5525 5513 5499 5484 5468 5453 5437 5422
5610 5615 5616 5618 5620 5622 5624 5625 5626 5628 5630 5630 5631 5631 5631 5630 5630 5629 5627 5626 5624 5622 5619 5614 5610 5604 5599 5592 5584 5576 5568 5559 5551 5543 5532 5520 5507 5494 5480 5463 5449 5431 5416 5403
5607 5609 5612 5615 5616 5618 5619 5620 5621 5623 5623 5624 5624 5624 5623 5622 5621 5620 5619 5617 5614 5611 5608 5604 5598 5593 5586 5579 5571 5563 5555 5548 5539 5528 5517 5506 5491 5475 5460 5444 5427 5412 5398 5385
5603 5606 5608 5611 5612 5613 5614 5615 5616 5617 5617 5617 5617 5616 5616 5615 5613 5612 5610 5607 5604 5601 5597 5592 5587 5580 5574 5567 5559 5551 5544 5535 5524 5513 5501 5487 5474 5462 5443 5425 5411 5397 5383 5369
5601 5603 5604 5606 5607 5609 5610 5611 5611 5611 5611 5610 5609 5608 5607 5606 5605 5603 5601 5598 5594 5590 5585 5580 5575 5568 5561 5554 5547 5539 5530 5520 5508 5495 5483 5470 5456 5441 5429 5416 5396 5383 5371 5358
5596 5598 5601 5602 5603 5604 5604 5605 5605 5605 5604 5603 5601 5600 5599 5598 5596 5594 5591 5588 5583 5578 5574 5569 5563 5556 5550 5542 5534 5525 5515 5503 5492 5480 5467 5452 5437 5422 5407 5395 5385 5374 5360 5346
5592 5593 5595 5596 5597 5597 5598 5598 5597 5596 5595 5594 5593 5592 5590 5588 5586 5584 5580 5576 5572 5568 5563 5557 5551 5545 5537 5529 5520 5510 5499 5488 5476 5463 5449 5434 5420 5405 5392 5381 5370 5358 5347 5335
5585 5587 5588 5589 5589 5589 5589 5588 5588 5587 5586 5585 5584 5583 5581 5579 5576 5573 5569 5566 5562 5557 5551 5545 5539 5533 5525 5516 5507 5496 5485 5473 5460 5446 5432 5417 5402 5389 5379 5368 5357 5344 5330 5317
5578 5579 5579 5580 5580 5579 5579 5579 5579 5578 5577 5576 5575 5573 5571 5569 5566 5562 5559 5555 5550 5545 5540 5534 5527 5520 5512 5502 5492 5481 5469 5457 5443 5430 5416 5401 5388 5377 5366 5354 5343 5331 5317 5305
5569 5570 5570 5571 5570 5571 5571 5571 5570 5569 5568 5568 5566 5564 5562 5559 5555 5552 5548 5544 5539 5534 5528 5522 5515 5507 5497 5487 5477 5465 5453 5441 5428 5414 5399 5386 5374 5363 5353 5342 5331 5318 5309 5299
5559 5561 5562 5562 5562 5562 5562 5562 5561 5560 5560 5559 5557 5555 5552 5549 5545 5541 5537 5533 5528 5523 5517 5510 5501 5492 5482 5471 5460 5449 5437 5424 5410 5397 5384 5372 5362 5352 5341 5330 5318 5308 5300 5292
5551 5552 5553 5554 5554 5554 5553 5552 5552 5551 5551 5549 5547 5544 5541 5538 5535 5531 5527 5522 5517 5511 5504 5496 5487 5477 5467 5456 5445 5433 5420 5408 5395 5382 5371 5360 5350 5341 5330 5318 5308 5300 5292 5287
5543 5544 5545 5545 5545 5545 5544 5544 5543 5542 5540 5538 5536 5534 5531 5528 5524 5520 5516 5511 5504 5498 5489 5481 5471 5461 5451 5440 5428 5417 5404 5391 5379 5368 5359 5349 5339 5329 5317 5308 5300 5292 5287 5283
5535 5536 5536 5536 5536 5535 5535 5534 5533 5532 5530 5528 5527 5525 5522 5518 5514 5510 5504 5499 5491 5483 5474 5465 5455 5444 5434 5423 5412 5400 5387 5376 5365 5356 5347 5336 5327 5316 5308 5300 5293 5288 5284 5280
5526 5526 5526 5526 5525 5525 5525 5525 5524 5523 5521 5520 5518 5515 5512 5508 5503 5497 5491 5484 5476 5468 5459 5449 5439 5429 5418 5407 5396 5384 5372 5362 5353 5344 5334 5324 5314 5306 5299 5294 5288 5284 5280 5277
5515 5515 5516 5516 5516 5516 5516 5516 5515 5514 5512 5510 5507 5504 5500 5495 5489 5483 5476 5469 5461 5452 5443 5433 5423 5413 5403 5391 5380 5368 5358 5349 5339 5330 5320 5311 5304 5297 5292 5287 5283 5279 5277 5275
5506 5507 5507 5507 5507 5507 5507 5506 5505 5503 5502 5499 5496 5492 5487 5482 5476 5469 5462 5454 5445 5436 5427 5417 5407 5396 5385 5374 5363 5354 5345 5335 5326 5316 5308 5301 5295 5289 5284 5280 5277 5275 5274 5274
5499 5499 5499 5499 5499 5498 5498 5496 5495 5493 5490 5486 5483 5478 5473 5467 5461 5454 5446 5438 5429 5420 5410 5401 5390 5380 5368 5358 5350 5341 5332 5322 5313 5305 5298 5292 5286 5281 5277 5273 5272 5271 5272 5275
5491 5491 5490 5490 5490 5489 5488 5486 5484 5481 5478 5474 5469 5464 5459 5452 5445 5437 5429 5421 5413 5404 5394 5384 5373 5362 5353 5345 5337 5328 5318 5309 5301 5295 5289 5283 5277 5272 5269 5268 5268 5269 5273 5277